Regional Weather Roundup
Issued by NWS

Home | Current Version | Previous Version | Graphics & Text | Print | Product List | Glossary On
Versions: 1 2 3 4 5 6 7 8 9 10 11 12 13 14 15 16 17 18 19 20 21 22 23 24 25 26 27 28 29 30 31 32 33 34 35 36 37 38 39 40 41 42 43 44 45 46 47 48 49 50
000
ASUS43 KFSD 160502
RWRSD

WEATHER ROUNDUP FOR SOUTH DAKOTA
NATIONAL WEATHER SERVICE SIOUX FALLS SD
1200 AM CDT MON OCT 16 2017

NOTE: "FAIR" INDICATES FEW OR NO CLOUDS BELOW 12,000 FEET WITH NO
SIGNIFICANT WEATHER AND/OR OBSTRUCTIONS TO VISIBILITY.


SDZ001>005-009-010-012>017-160600-
NORTHWEST AND NORTH CENTRAL SOUTH DAKOTA

CITY           SKY/WX    TMP DP  RH WIND       PRES   REMARKS
BUFFALO          N/A     39  27  62 SW6       30.14F
FAITH            N/A     38  28  67 S9        30.23F
MOBRIDGE       CLEAR     39  32  76 SE5       30.20F
$$

SDZ012>016-024>037-041>051-057-063-072>074-160600-
SOUTHWEST AND SOUTH CENTRAL SOUTH DAKOTA

CITY           SKY/WX    TMP DP  RH WIND       PRES   REMARKS
RAPID CTY ARPT CLEAR     42  28  57 CALM      30.27F
PIERRE         CLEAR     43  31  62 SW8       30.25F
CUSTER         CLEAR     40  23  50 SW3       30.31F
ELLSWORTH AFB  CLEAR     44  28  53 S3        30.26F
PHILIP         CLEAR     37  31  78 W3        30.27F
PINE RIDGE     CLEAR     31  28  89 CALM      30.31S
SPEARFISH      FAIR      37  28  70 CALM      30.26F
WINNER         FAIR      43  32  65 SW8       30.30F
$$

SDZ004>011-016>023-039-040-160600-
NORTHEAST SOUTH DAKOTA

CITY           SKY/WX    TMP DP  RH WIND       PRES   REMARKS
ABERDEEN       CLEAR     32  29  88 SW7       30.23F WCI  26
WATERTOWN      CLEAR     42  33  70 NW8       30.23S
BROOKINGS      CLEAR     39  32  76 SW5       30.26S
SISSETON         N/A     40  32  73 CALM      30.20S
$$

SDZ017-020-022-023-036>040-048>070-160600-
SOUTHEAST SOUTH DAKOTA

CITY           SKY/WX    TMP DP  RH WIND       PRES   REMARKS
SIOUX FALLS    CLEAR     41  35  79 W5        30.28S
HURON          CLEAR     38  33  82 SW5       30.26F
MITCHELL       CLEAR     44  34  67 SW8       30.29S
YANKTON        CLEAR     46  36  68 SW7       30.30S
$$

ABBREVIATIONS USED IN REMARKS
   TC - TEMPERATURE IN CELSIUS
  WCI - WIND CHILL INDEX
   HX - HEAT INDEX
  VSB - VISIBILITY





USA.gov is the U.S. government's official web portal to all federal, state and local government web resources and services.